Weather History for Medford, OR

Change the Weather History Date:

Saturday, June 29, 2013

  Actual Average Record
Temperature  
Mean Temperature 82 °F 70 °F  
Max Temperature 98 °F 86 °F 106 °F (1924)
Min Temperature 66 °F 55 °F 38 °F (1988)
Degree Days  
Heating Degree Days 0 1  
Month to date heating degree days 35 54  
Since 1 June heating degree days 35 54  
Since 1 July heating degree days 4037 4251  
Cooling Degree Days 17 6  
Month to date cooling degree days 128 101  
Year to date cooling degree days 163 139  
Since 1 June cooling degree days 128 101  
Growing Degree Days 30 (Base 50)    
Moisture  
Dew Point 54 °F    
Average Humidity 44    
Maximum Humidity 68    
Minimum Humidity 19    
Precipitation  
Precipitation 0.00 in 0.01 in 0.67 in (1997)
Month to date precipitation 0.39 0.61  
Year to date precipitation 4.13 9.45  
Snow  
Snow 0.00 in 0.00 in - ()
Month to date snowfall 0.0 0.0  
Since 1 July snowfall 1.7 4.1  
Snow Depth 0.00 in    
Sea Level Pressure  
Sea Level Pressure 29.99 in    
Wind  
Wind Speed 4 mph (NW)    
Max Wind Speed 14 mph    
Max Gust Speed 17 mph    
Visibility 10 miles    
Events      
T = Trace of Precipitation, MM = Missing Value Source: NWS Daily Summary

Daily Weather History Graph

Daily Weather History Graph

Search for Another Location

Airport:

Trip Planner

Search our weather history database for the weather conditions in past years. The results will help you decide how hot, cold, wet, or windy it might be!

Date:

Astronomy

Jun. 29, 2013 Rise Set
Actual Time 5:37 AM PDT 8:52 PM PDT
Civil Twilight 5:02 AM PDT 9:27 PM PDT
Nautical Twilight 4:18 AM PDT 10:11 PM PDT
Astronomical Twilight 3:23 AM PDT 11:05 PM PDT
Moon 12:15 AM PDT (6/29) 1:04 PM PDT (6/29)
Length of Visible Light 16h 24m
Length of Day
15h 14m
Waning Gibbous, 54% of the Moon is Illuminated
Jun 29
Waning Gibbous
Jun 29
Last Quarter
Jul 8
New
Jul 15
First Quarter
Jul 22
Full

Hourly Weather History & Observations

Time (PDT) Temp. Heat Index Dew Point Humidity Pressure Visibility Wind Dir Wind Speed Gust Speed Precip Events Conditions
12:53 AM 75.0 °F - 55.9 °F 51% 30.04 in 10.0 mi Calm Calm - N/A   Clear
1:53 AM 73.9 °F - 55.9 °F 53% 30.03 in 10.0 mi NNW 5.8 mph - N/A   Clear
2:53 AM 73.0 °F - 55.0 °F 53% 30.04 in 10.0 mi NW 4.6 mph - N/A   Clear
3:53 AM 72.0 °F - 54.0 °F 53% 30.05 in 10.0 mi NW 6.9 mph - N/A   Clear
4:53 AM 69.1 °F - 54.0 °F 58% 30.06 in 10.0 mi Calm Calm - N/A   Clear
5:53 AM 66.9 °F - 55.9 °F 68% 30.07 in 10.0 mi SW 3.5 mph - 0.01 in   Clear
6:53 AM 68.0 °F - 55.9 °F 65% 30.07 in 10.0 mi Calm Calm - 0.01 in   Clear
7:53 AM 71.1 °F - 55.0 °F 57% 30.07 in 10.0 mi Calm Calm - 0.01 in   Clear
8:53 AM 73.9 °F - 54.0 °F 50% 30.07 in 10.0 mi WNW 3.5 mph - 0.01 in   Clear
9:53 AM 78.1 °F - 54.0 °F 43% 30.06 in 10.0 mi Calm Calm - N/A   Clear
10:53 AM 81.0 °F 80.7 °F 55.0 °F 41% 30.04 in 10.0 mi Calm Calm - N/A   Clear
11:53 AM 84.0 °F 82.9 °F 55.0 °F 37% 30.03 in 10.0 mi Variable 4.6 mph - 0.01 in   Clear
12:53 PM 88.0 °F 86.7 °F 57.0 °F 35% 30.01 in 10.0 mi Variable 5.8 mph - 0.03 in   Clear
1:53 PM 90.0 °F 87.9 °F 55.0 °F 30% 29.98 in 10.0 mi Variable 4.6 mph - 0.01 in   Clear
2:53 PM 93.0 °F 90.6 °F 53.1 °F 26% 29.96 in 10.0 mi Calm Calm - 0.04 in   Clear
3:53 PM 95.0 °F - 48.9 °F 21% 29.94 in 10.0 mi NNW 6.9 mph - 0.03 in   Clear
4:53 PM 95.0 °F - 46.9 °F 19% 29.92 in 10.0 mi NW 5.8 mph - 0.08 in   Partly Cloudy
5:53 PM 95.0 °F - 51.1 °F 22% 29.90 in 10.0 mi NNW 5.8 mph - 0.03 in   Partly Cloudy
6:53 PM 95.0 °F - 51.1 °F 22% 29.89 in 10.0 mi NW 8.1 mph - 0.03 in   Clear
7:53 PM 93.0 °F 90.6 °F 53.1 °F 26% 29.89 in 10.0 mi North 10.4 mph - 0.01 in   Clear
8:53 PM 87.1 °F - 52.0 °F 30% 29.90 in 10.0 mi North 6.9 mph - N/A   Clear
9:53 PM 81.0 °F 80.4 °F 53.1 °F 38% 29.92 in 10.0 mi NNE 4.6 mph - N/A   Clear
10:53 PM 79.0 °F - 52.0 °F 39% 29.94 in 10.0 mi North 5.8 mph - 0.01 in   Clear
11:53 PM 75.9 °F - 55.0 °F 48% 29.94 in 10.0 mi South 3.5 mph - 0.03 in   Clear